This demonstration page uses our WeatherBlox Daily Observations layout. Learn more.

Left ArrowRight Arrow

39.12711, -84.51439

Hourly Observations for July 3, 2021

Temp ( °F °C ) Dew Point ( °F °C ) Humidity (%) Winds ( mph kmh ) Pressure ( in mb ) Visibility ( mi km ) Precip ( " mm )
12:53 am 00:53 Clear 59 15 56 13.3 90 90 N N/A 29.98 1015 10 16 N/A
1:53 am 01:53 Clear 57 13.9 55 12.8 93 93 N N/A 29.98 1015 10 16 N/A
2:53 am 02:53 Clear 58 14.4 55 12.8 90 90 N N/A 29.99 1016 10 16 N/A
3:53 am 03:53 Clear 57 13.9 54 12.2 90 90 N N/A 29.99 1016 10 16 N/A
4:53 am 04:53 Clear 55 12.8 54 12.2 96 96 N N/A 30.01 1016 10 16 N/A
5:53 am 05:53 Clear 56 13.3 54 12.2 93 93 N N/A 30.01 1016 10 16 N/A
6:53 am 06:53 Sunny with Mist and Fog 54 12.2 54 12.2 100 100 N N/A 30.03 1017 6 10 N/A
7:53 am 07:53 Sunny with Mist and Fog 61 16.1 58 14.4 90 90 N N/A 30.04 1017 4 6 N/A
8:53 am 08:53 Sunny 65 18.3 59 15 81 81 N N/A 30.04 1017 10 16 N/A
9:53 am 09:53 Sunny 69 20.6 60 15.6 73 73 N N/A 30.04 1017 10 16 N/A
10:53 am 10:53 Sunny 74 23.3 57 13.9 56 56 VRB 3 6 30.03 1017 10 16 N/A
11:53 am 11:53 Partly Cloudy 75 23.9 55 12.8 50 50 WNW 9 15 30.03 1017 10 16 N/A
12:53 pm 12:53 Partly Cloudy 77 25 55 12.8 47 47 W 8 13 30.01 1016 10 16 N/A
1:53 pm 13:53 Mostly Cloudy 78 25.6 57 13.9 48 48 VRB 7 11 29.99 1016 10 16 N/A
2:53 pm 14:53 Mostly Sunny 79 26.1 55 12.8 44 44 VRB 5 7 29.97 1015 10 16 N/A
3:53 pm 15:53 Sunny 79 26.1 55 12.8 44 44 W 5 7 29.97 1015 10 16 N/A
4:53 pm 16:53 Sunny 79 26.1 56 13.3 45 45 NW 10 17 29.95 1014 10 16 N/A
5:53 pm 17:53 Sunny 79 26.1 56 13.3 45 45 WNW 12 19 29.94 1014 10 16 N/A
6:53 pm 18:53 Sunny 78 25.6 55 12.8 45 45 W 12 19 29.94 1014 10 16 N/A
7:53 pm 19:53 Sunny 76 24.4 56 13.3 50 50 W 8 13 29.95 1014 10 16 N/A
8:53 pm 20:53 Mostly Sunny 75 23.9 53 11.7 46 46 W 10 17 29.96 1015 10 16 N/A
9:53 pm 21:53 Cloudy 74 23.3 53 11.7 48 48 W 6 9 29.97 1015 10 16 N/A
10:53 pm 22:53 Clear 71 21.7 53 11.7 53 53 W 5 7 29.97 1015 10 16 N/A
11:53 pm 23:53 Clear 67 19.4 55 12.8 66 66 S 5 7 29.98 1015 10 16 N/A

Powered by AerisWeather